Home   Weather   Königs Wusterhausen   Past weeks

Flag for Germany Past Weather in Königs Wusterhausen, Brandenburg, Germany — Yesterday and Last 2 Weeks

45 °F


Feels Like: 45 °F
Forecast: 42 / 53 °F
Wind: 2 mph from North

Location: Berlin-Schoenefeld

Current Time: Oct 26, 2016 at 6:06:18 AM

Latest Report: Oct 26, 2016 at 5:20 AM

Visibility: 2 mi

Pressure: 30.36 "Hg

Humidity: 93%

Dew Point: 43 °F

Location of Königs WusterhausenLocation

Past Weather in Königs Wusterhausen — Graph


Königs Wusterhausen Temperature Yesterday

Maximum temperature yesterday: 50 °F (at 10:50 AM)
Minimum temperature yesterday: 41 °F (at 10:20 PM)
Average temperature yesterday: 48 °F

High & Low Weather Summary for the Past Weeks

High54 °F (Oct 14, 3:50 PM)100% (Oct 11, 4:50 AM)30.36 "Hg (Oct 11, 4:50 AM)
Low37 °F (Oct 14, 5:50 AM)58% (Oct 14, 3:50 PM)29.86 "Hg (Oct 15, 4:50 AM)
Average46 °F90%30.07 "Hg
* Reported Oct 11 4:20 AM — Oct 26 4:50 AM, Königs Wusterhausen, Weather by CustomWeather, © 2016

Note: Actual official high and low records may vary slightly from our data, if they occured in-between our weather recording intervals... More about our weather records


Königs Wusterhausen Weather History for the Previous 24 Hours

Scroll right to see more
Time TempWeatherWind HumidityBarometerVisibility
4:50 AM
Wed, Oct 26
45 °FFog.2 mph93%30.36 "Hg2 mi
4:20 AM43 °FFog.5 mph100%30.36 "Hg2 mi
3:50 AM45 °FFog.2 mph93%30.33 "Hg1 mi
3:20 AM43 °FFog.3 mph100%30.33 "Hg1 mi
2:50 AM43 °FFog.2 mph93%30.33 "Hg1 mi
2:20 AM43 °FFog.2 mph93%30.33 "Hg1 mi
1:50 AM43 °FFog.3 mph100%30.30 "Hg1 mi
1:20 AM43 °FFog.8 mph100%30.30 "Hg1 mi
12:50 AM45 °FFog.3 mph93%30.30 "Hg2 mi
12:20 AM45 °FFog.5 mph93%30.30 "Hg2 mi
11:50 PM
Tue, Oct 25
43 °FFog.3 mph100%30.30 "Hg2 mi
11:20 PM43 °FFog.5 mph93%30.30 "Hg2 mi
10:50 PM41 °FFog.6 mph100%30.30 "Hg2 mi
10:20 PM41 °FFog.3 mph93%30.30 "Hg3 mi
9:50 PM43 °FClear.1 mph93%30.30 "Hg4 mi
9:20 PM46 °FClear.7 mph87%30.27 "Hg4 mi
8:50 PM48 °FClear.8 mph87%30.27 "Hg4 mi
8:20 PM48 °FClear.6 mph87%30.27 "Hg4 mi
7:50 PM48 °FPassing clouds.3 mph87%30.24 "Hg4 mi
7:20 PM48 °FPassing clouds.No wind94%30.24 "Hg3 mi
6:50 PM48 °FPassing clouds.No wind94%30.24 "Hg3 mi
6:20 PM48 °FFog.1 mph94%30.21 "Hg3 mi
5:50 PM48 °FFog.2 mph94%30.21 "Hg3 mi
5:20 PM50 °FFog.3 mph88%30.21 "Hg3 mi
4:50 PM50 °FLight rain. Fog.6 mph88%30.21 "Hg3 mi
4:20 PM50 °FLight rain. Fog.8 mph88%30.18 "Hg3 mi
3:50 PM50 °FPartly sunny.7 mph94%30.18 "Hg3 mi
3:20 PM50 °FBroken clouds.7 mph94%30.18 "Hg4 mi
2:50 PM50 °FBroken clouds.7 mph88%30.15 "Hg4 mi
2:20 PM50 °FPartly sunny.7 mph94%30.15 "Hg4 mi
1:50 PM50 °FBroken clouds.7 mph94%30.15 "Hg4 mi
1:20 PM50 °FDrizzle. Partly sunny.6 mph94%30.15 "Hg4 mi
12:50 PM50 °FPartly sunny.5 mph94%30.15 "Hg4 mi
12:20 PM50 °FPartly sunny.5 mph94%30.15 "Hg4 mi
11:50 AM50 °FPartly sunny.5 mph94%30.12 "Hg4 mi
11:20 AM50 °FPartly sunny.3 mph94%30.12 "Hg4 mi
10:50 AM50 °FBroken clouds.3 mph94%30.12 "Hg4 mi
10:20 AM48 °FPartly sunny.3 mph100%30.12 "Hg4 mi
9:50 AM48 °FLight rain. Partly sunny.5 mph94%30.09 "Hg4 mi
9:20 AM48 °FLight rain. Partly sunny.6 mph94%30.09 "Hg3 mi
8:50 AM48 °FLight rain. Fog.7 mph94%30.09 "Hg3 mi
8:20 AM48 °FLight rain. Fog.6 mph94%30.07 "Hg2 mi
7:50 AM48 °FLight rain. Fog.3 mph94%30.07 "Hg2 mi
7:20 AM48 °FDrizzle. Fog.6 mph94%30.04 "Hg2 mi
6:50 AM48 °FLight rain. Fog.7 mph94%30.04 "Hg2 mi
6:20 AM48 °FDrizzle. Fog.7 mph94%30.04 "Hg2 mi
Weather by CustomWeather, © 2016

See weather overviewHow to use our weather pages